When you browse on this site, cookies collect data to enhance your experience and personalize the content and advertising you see.
Visit our Privacy Policy to learn more. By continuing to use the site, you agree to this use of cookies and data.
  • In Hungary
  • List of Countries
  • For 7 days
  • Water Temperature
  • Satellite Maps
  • Weather Map
  • News
  • Weather Widgets
  • user-avatar
    Login

    Hourly Weather Dieffenthal

    Today, 19 February, Tuesday

    Time Temperature Precipitation Wind Pressure Humidity
    00:00 +5°C° 0 mm 2 mps 738 mmHg 75%
    01:00 +5°C° 0 mm 2 mps 739 mmHg 76%
    02:00 +5°C° 0 mm 2 mps 739 mmHg 78%
    03:00 +5°C° 0 mm 2 mps 739 mmHg 79%
    04:00 +5°C° 0 mm 2 mps 739 mmHg 80%
    05:00 +4°C° 0 mm 2 mps 739 mmHg 81%
    06:00 +4°C° 0 mm 2 mps 739 mmHg 82%
    07:00 +5°C° 0 mm 2 mps 739 mmHg 80%
    08:00 +7°C° 0 mm 3 mps 739 mmHg 77%
    09:00 +8°C° 0 mm 3 mps 739 mmHg 74%
    10:00 +9°C° 0 mm 3 mps 739 mmHg 72%
    11:00 +10°C° 0 mm 3 mps 739 mmHg 70%
    12:00 +11°C° 0 mm 3 mps 740 mmHg 68%
    13:00 +10°C° 0 mm 3 mps 739 mmHg 69%
    14:00 +10°C° 0 mm 2 mps 739 mmHg 71%
    15:00 +10°C° 0 mm 2 mps 739 mmHg 73%
    16:00 +10°C° 0 mm 1 mps 740 mmHg 77%
    17:00 +9°C° 0 mm 1 mps 740 mmHg 81%
    18:00 +8°C° 0 mm 1 mps 740 mmHg 85%
    19:00 +7°C° 0 mm 0 mps 740 mmHg 86%
    20:00 +7°C° 0 mm 0 mps 741 mmHg 87%
    21:00 +7°C° 0 mm 0 mps 741 mmHg 88%
    22:00 +7°C° 0 mm 0 mps 741 mmHg 88%
    23:00 +6°C° 0 mm 0 mps 741 mmHg 89%

    Tomorrow, 20 February, Wednesday

    Time Temperature Precipitation Wind Pressure Humidity
    00:00 +6°C° 0 mm 0 mps 741 mmHg 90%
    01:00 +6°C° 0 mm 0 mps 741 mmHg 90%
    02:00 +6°C° 0 mm 0 mps 741 mmHg 90%
    03:00 +5°C° 0 mm 0 mps 741 mmHg 91%
    04:00 +5°C° 0 mm 0 mps 741 mmHg 91%
    05:00 +5°C° 0 mm 0 mps 741 mmHg 91%
    06:00 +5°C° 0 mm 0 mps 741 mmHg 91%
    07:00 +7°C° 0 mm 1 mps 742 mmHg 87%
    08:00 +8°C° 0 mm 1 mps 742 mmHg 82%
    09:00 +9°C° 0 mm 1 mps 742 mmHg 78%
    10:00 +10°C° 0 mm 1 mps 742 mmHg 73%
    11:00 +11°C° 0 mm 1 mps 742 mmHg 67%
    12:00 +12°C° 0 mm 1 mps 742 mmHg 62%
    13:00 +12°C° 0 mm 1 mps 742 mmHg 60%
    14:00 +13°C° 0 mm 1 mps 742 mmHg 59%
    15:00 +13°C° 0 mm 1 mps 742 mmHg 57%
    16:00 +11°C° 0 mm 1 mps 742 mmHg 64%
    17:00 +9°C° 0 mm 0 mps 743 mmHg 70%
    18:00 +7°C° 0 mm 0 mps 743 mmHg 77%
    19:00 +7°C° 0 mm 0 mps 743 mmHg 78%
    20:00 +7°C° 0 mm 0 mps 743 mmHg 80%
    21:00 +6°C° 0 mm 0 mps 744 mmHg 82%
    22:00 +7°C° 0 mm 1 mps 744 mmHg 83%
    23:00 +7°C° 0 mm 1 mps 744 mmHg 84%

    Day after tomorrow, 21 February, Thursday

    Time Temperature Precipitation Wind Pressure Humidity
    00:00 +7°C° 0 mm 1 mps 744 mmHg 85%
    01:00 +6°C° 0 mm 1 mps 744 mmHg 86%
    02:00 +6°C° 0 mm 1 mps 744 mmHg 86%
    03:00 +6°C° 0 mm 1 mps 744 mmHg 87%
    04:00 +6°C° 0 mm 1 mps 744 mmHg 87%
    05:00 +6°C° 0 mm 1 mps 745 mmHg 87%
    06:00 +6°C° 0 mm 1 mps 745 mmHg 87%
    07:00 +7°C° 0 mm 1 mps 745 mmHg 81%
    08:00 +9°C° 0 mm 1 mps 746 mmHg 75%
    09:00 +10°C° 0 mm 1 mps 746 mmHg 69%
    10:00 +11°C° 0 mm 1 mps 746 mmHg 64%
    11:00 +13°C° 0 mm 1 mps 746 mmHg 59%
    12:00 +14°C° 0 mm 1 mps 747 mmHg 54%
    13:00 +14°C° 0 mm 1 mps 746 mmHg 54%
    14:00 +14°C° 0 mm 1 mps 746 mmHg 54%
    15:00 +14°C° 0 mm 1 mps 746 mmHg 55%
    16:00 +13°C° 0 mm 1 mps 746 mmHg 62%
    17:00 +11°C° 0 mm 1 mps 747 mmHg 70%
    18:00 +8°C° 0 mm 0 mps 747 mmHg 77%
    19:00 +8°C° 0 mm 0 mps 748 mmHg 79%
    20:00 +7°C° 0 mm 0 mps 748 mmHg 81%
    21:00 +7°C° 0 mm 0 mps 749 mmHg 83%
    22:00 +7°C° 0 mm 0 mps 749 mmHg 84%
    23:00 +6°C° 0 mm 0 mps 749 mmHg 86%

    22 February, Friday

    Time Temperature Precipitation Wind Pressure Humidity
    00:00 +6°C° 0 mm 0 mps 749 mmHg 87%
    01:00 +6°C° 0 mm 0 mps 749 mmHg 87%
    02:00 +5°C° 0 mm 0 mps 749 mmHg 88%
    03:00 +5°C° 0 mm 0 mps 749 mmHg 88%
    04:00 +5°C° 0 mm 0 mps 750 mmHg 88%
    05:00 +5°C° 0 mm 0 mps 750 mmHg 88%
    06:00 +6°C° 0 mm 1 mps 750 mmHg 89%
    07:00 +7°C° 0 mm 1 mps 750 mmHg 82%
    08:00 +8°C° 0 mm 1 mps 751 mmHg 76%
    09:00 +10°C° 0 mm 1 mps 751 mmHg 70%
    10:00 +11°C° 0 mm 1 mps 751 mmHg 64%
    11:00 +13°C° 0 mm 2 mps 751 mmHg 57%
    12:00 +14°C° 0 mm 2 mps 750 mmHg 51%
    13:00 +14°C° 0 mm 2 mps 750 mmHg 51%
    14:00 +13°C° 0 mm 3 mps 750 mmHg 52%
    15:00 +14°C° 0 mm 3 mps 750 mmHg 52%
    16:00 +12°C° 0 mm 3 mps 750 mmHg 59%
    17:00 +10°C° 0 mm 2 mps 750 mmHg 67%
    18:00 +9°C° 0 mm 2 mps 750 mmHg 74%
    19:00 +8°C° 0 mm 2 mps 750 mmHg 77%
    20:00 +8°C° 0 mm 2 mps 751 mmHg 79%
    21:00 +7°C° 0 mm 2 mps 751 mmHg 81%
    22:00 +7°C° 0 mm 2 mps 751 mmHg 83%
    23:00 +7°C° 0 mm 2 mps 750 mmHg 85%

    23 February, Saturday

    Time Temperature Precipitation Wind Pressure Humidity
    00:00 +6°C° 0 mm 2 mps 750 mmHg 87%
    01:00 +6°C° 0 mm 2 mps 750 mmHg 89%
    02:00 +6°C° 0 mm 2 mps 750 mmHg 90%
    03:00 +6°C° 0 mm 2 mps 750 mmHg 92%
    04:00 +6°C° 0 mm 2 mps 750 mmHg 92%
    05:00 +6°C° 0 mm 1 mps 750 mmHg 92%
    06:00 +6°C° 0 mm 1 mps 750 mmHg 92%
    07:00 +7°C° 0 mm 1 mps 750 mmHg 85%
    08:00 +9°C° 0 mm 1 mps 750 mmHg 79%
    09:00 +10°C° 0 mm 1 mps 751 mmHg 73%
    10:00 +12°C° 0 mm 1 mps 751 mmHg 66%
    11:00 +13°C° 0 mm 1 mps 751 mmHg 59%
    12:00 +15°C° 0 mm 1 mps 751 mmHg 52%
    13:00 +15°C° 0 mm 1 mps 750 mmHg 51%
    14:00 +16°C° 0 mm 1 mps 750 mmHg 51%
    15:00 +16°C° 0 mm 1 mps 750 mmHg 51%
    16:00 +14°C° 0 mm 1 mps 750 mmHg 58%
    17:00 +12°C° 0 mm 1 mps 750 mmHg 66%
    18:00 +10°C° 0 mm 1 mps 750 mmHg 73%
    19:00 +10°C° 0 mm 1 mps 750 mmHg 76%
    20:00 +9°C° 0 mm 1 mps 750 mmHg 78%
    21:00 +8°C° 0 mm 0 mps 750 mmHg 81%
    22:00 +7°C° 0 mm 0 mps 750 mmHg 81%
    23:00 +7°C° 0 mm 0 mps 750 mmHg 81%

    24 February, Sunday

    Time Temperature Precipitation Wind Pressure Humidity
    00:00 +7°C° 0 mm 0 mps 750 mmHg 82%
    01:00 +7°C° 0 mm 0 mps 750 mmHg 81%
    02:00 +6°C° 0 mm 0 mps 750 mmHg 80%
    03:00 +6°C° 0 mm 0 mps 750 mmHg 79%
    04:00 +6°C° 0 mm 0 mps 750 mmHg 78%
    05:00 +6°C° 0 mm 0 mps 750 mmHg 77%
    06:00 +6°C° 0 mm 0 mps 750 mmHg 76%
    07:00 +8°C° 0 mm 0 mps 750 mmHg 69%
    08:00 +10°C° 0 mm 0 mps 750 mmHg 63%
    09:00 +11°C° 0 mm 0 mps 750 mmHg 57%
    10:00 +13°C° 0 mm 0 mps 750 mmHg 52%
    11:00 +15°C° 0 mm 0 mps 750 mmHg 47%
    12:00 +17°C° 0 mm 0 mps 750 mmHg 42%
    13:00 +19°C° 0 mm 1 mps 750 mmHg 43%
    14:00 +19°C° 0 mm 1 mps 749 mmHg 44%
    15:00 +19°C° 0 mm 1 mps 749 mmHg 45%
    16:00 +16°C° 0 mm 1 mps 749 mmHg 52%
    17:00 +14°C° 0 mm 1 mps 749 mmHg 59%
    18:00 +12°C° 0 mm 1 mps 749 mmHg 66%
    19:00 +11°C° 0 mm 1 mps 750 mmHg 70%
    20:00 +11°C° 0 mm 1 mps 750 mmHg 73%
    21:00 +10°C° 0 mm 1 mps 750 mmHg 76%
    22:00 +10°C° 0 mm 1 mps 750 mmHg 79%
    23:00 +9°C° 0 mm 1 mps 750 mmHg 81%
    Show more